TimePDT,TemperatureF,Dew PointF,Humidity,Sea Level PressureIn,VisibilityMPH,Wind Direction,Wind SpeedMPH,Gust SpeedMPH,PrecipitationIn,Events,Conditions,WindDirDegrees,DateUTC
12:53 AM,54.0,51.1,90,29.96,10.0,Calm,Calm,-,N/A,,Clear,0,2012-10-06 07:53:00
1:53 AM,52.0,48.9,89,29.96,9.0,Calm,Calm,-,N/A,,Clear,0,2012-10-06 08:53:00
2:53 AM,53.1,50.0,89,29.95,8.0,Calm,Calm,-,N/A,,Clear,0,2012-10-06 09:53:00
3:37 AM,50.0,48.2,94,29.98,2.0,Calm,Calm,-,N/A,,Partly Cloudy,0,2012-10-06 10:37:00
3:43 AM,50.0,48.2,94,29.97,1.0,Calm,Calm,-,N/A,,Mist,0,2012-10-06 10:43:00
3:48 AM,51.8,48.2,88,29.97,2.0,Calm,Calm,-,N/A,,Scattered Clouds,0,2012-10-06 10:48:00
3:51 AM,51.8,48.2,88,29.97,4.0,Calm,Calm,-,N/A,,Mostly Cloudy,0,2012-10-06 10:51:00
3:53 AM,51.1,48.9,92,29.94,7.0,Calm,Calm,-,N/A,,Mostly Cloudy,0,2012-10-06 10:53:00
4:20 AM,51.8,48.2,88,29.97,7.0,Calm,Calm,-,N/A,,Scattered Clouds,0,2012-10-06 11:20:00
4:53 AM,51.1,48.9,92,29.94,8.0,Calm,Calm,-,N/A,,Clear,0,2012-10-06 11:53:00
5:53 AM,51.1,48.0,89,29.94,9.0,Calm,Calm,-,N/A,,Clear,0,2012-10-06 12:53:00
6:53 AM,51.1,48.0,89,29.96,7.0,Calm,Calm,-,N/A,,Clear,0,2012-10-06 13:53:00
7:53 AM,55.9,51.1,84,29.96,10.0,Calm,Calm,-,N/A,,Clear,0,2012-10-06 14:53:00
8:53 AM,63.0,52.0,67,29.97,10.0,Calm,Calm,-,N/A,,Clear,0,2012-10-06 15:53:00
9:53 AM,71.1,53.1,53,29.96,10.0,Calm,Calm,-,N/A,,Partly Cloudy,0,2012-10-06 16:53:00
10:53 AM,77.0,53.1,43,29.95,10.0,Variable,3.5,-,N/A,,Clear,0,2012-10-06 17:53:00
11:53 AM,80.1,48.9,34,29.94,10.0,West,8.1,-,N/A,,Clear,280,2012-10-06 18:53:00
12:53 PM,82.0,48.0,30,29.91,10.0,WNW,8.1,-,N/A,,Clear,290,2012-10-06 19:53:00
1:53 PM,82.0,50.0,33,29.89,10.0,WSW,8.1,-,N/A,,Clear,250,2012-10-06 20:53:00
2:53 PM,80.1,52.0,38,29.88,10.0,West,11.5,-,N/A,,Clear,280,2012-10-06 21:53:00
3:53 PM,77.0,52.0,42,29.89,10.0,West,10.4,-,N/A,,Clear,270,2012-10-06 22:53:00
4:53 PM,73.9,51.1,45,29.89,10.0,West,11.5,-,N/A,,Clear,260,2012-10-06 23:53:00
5:53 PM,70.0,51.1,51,29.90,10.0,West,6.9,-,N/A,,Clear,270,2012-10-07 00:53:00
6:53 PM,64.9,52.0,63,29.91,10.0,WNW,3.5,-,N/A,,Clear,290,2012-10-07 01:53:00
7:53 PM,64.0,55.9,75,29.91,10.0,Calm,Calm,-,N/A,,Clear,0,2012-10-07 02:53:00
8:53 PM,62.1,57.0,84,29.92,10.0,Calm,Calm,-,N/A,,Clear,0,2012-10-07 03:53:00
9:53 PM,60.1,53.1,78,29.92,10.0,NE,3.5,-,N/A,,Clear,50,2012-10-07 04:53:00
10:53 PM,57.9,51.1,78,29.92,10.0,Calm,Calm,-,N/A,,Clear,0,2012-10-07 05:53:00
11:53 PM,57.0,50.0,77,29.91,10.0,Calm,Calm,-,N/A,,Clear,0,2012-10-07 06:53:00